Regional Weather Roundup
Issued by NWS

Home | Current Version | Previous Version | Text Only | Print | Product List | Glossary Off
Versions: 1 2 3 4 5 6 7 8 9 10 11 12 13 14 15 16 17 18 19 20 21 22 23 24 25 26 27 28 29 30 31 32 33 34 35 36 37 38 39 40 41 42 43 44 45 46 47 48 49 50

000
ASUS43 KMKX 032100
RWRWI

WISCONSIN REGIONAL WEATHER ROUNDUP
NATIONAL WEATHER SERVICE MILWAUKEE/SULLIVAN WI
300 PM CST SAT DEC 03 2016

NOTE: "FAIR" INDICATES FEW OR NO CLOUDS BELOW 12,000 FEET WITH NO
SIGNIFICANT WEATHER AND/OR OBSTRUCTIONS TO VISIBILITY.

WIZ001-002-006>008-014>016-023>028-032200-
NORTHWEST WISCONSIN

CITY           SKY/WX    TMP DP  RH WIND       PRES   REMARKS
SUPERIOR ARPT  CLOUDY    32  23  69 S7        30.24S WCI  26
ASHLAND        CLOUDY    31  24  75 SW6       30.24F WCI  25
HAYWARD        CLOUDY    30  21  69 SW3       30.22F
SIREN          CLOUDY    31  21  67 S7        30.22F WCI  24
CUMBERLAND     CLOUDY    30  23  74 CALM      30.22F
RICE LAKE      CLOUDY    30  23  74 CALM      30.25F
CHETEK         CLOUDY    30  24  77 S3        30.24F
LADYSMITH      CLOUDY    30  24  79 SW3       30.26R
EAU CLAIRE     NOT AVBL
MENOMONIE      CLOUDY    32  22  66 S6        30.26S WCI  26
NEW RICHMOND   CLOUDY    31  20  64 SE5       30.23F WCI  26
OSCEOLA        CLOUDY    32  23  68 SE8       30.26S WCI  25
$$

WIZ003>005-009-010-017-018-032200-
NORTH CENTRAL WISCONSIN

CITY           SKY/WX    TMP DP  RH WIND       PRES   REMARKS
MANITOWISH WTR CLOUDY    28  23  79 S7        30.21F WCI  21
ARBOR VITAE    CLOUDY    32  24  73 CALM      30.21F
WOODRUFF       CLOUDY    32  24  73 CALM      30.21F
RHINELANDER    CLOUDY    28  22  78 SE6       30.22F WCI  22
EAGLE RIVER    CLOUDY    29  19  67 CALM      30.21F
LAND O LAKES   CLOUDY    30  23  76 CALM      30.23F
PHILLIPS       CLOUDY    28  24  87 CALM      30.21F
TOMAHAWK       CLOUDY    29  20  69 CALM      30.23F
MEDFORD        CLOUDY    28  20  70 CALM      30.22F
MERRILL        CLOUDY    29  20  70 CALM      30.25S
$$

WIZ029-030-035-036-043>047-032200-
CENTRAL WISCONSIN

CITY           SKY/WX    TMP DP  RH WIND       PRES   REMARKS
WAUSAU         CLOUDY    29  20  69 NW7       30.24F WCI  22
MOSINEE        CLOUDY    28  25  86 CALM      30.26F
MARSHFIELD     CLOUDY    29  21  72 SW6       30.25S WCI  23
STEVENS POINT  CLOUDY    28  22  77 SW5       30.27F WCI  23
WAUPACA        CLOUDY    33  24  68 SW5       30.29S WCI  29
WAUTOMA        CLOUDY    31  22  69 W6        30.29F WCI  25
WISC RAPIDS    CLOUDY    30  21  69 S6        30.29S WCI  24
CAMP DOUGLAS   NOT AVBL
$$

WIZ011>013-019>022-031-037>040-048>050-032200-
NORTHEAST WISCONSIN

CITY           SKY/WX    TMP DP  RH WIND       PRES   REMARKS
ANTIGO         CLOUDY    27  21  79 CALM      30.24F
SHAWANO        CLOUDY    33  23  66 W5        30.28F WCI  28
OCONTO         CLOUDY    32  23  69 SW6       30.29S WCI  27
STURGEON BAY   CLOUDY    33  25  72 SW9       30.29R WCI  25
GREEN BAY      CLOUDY    33  25  72 W7        30.29F WCI  27
MANITOWOC      NOT AVBL
APPLETON       CLOUDY    30  21  69 VRB5      30.26F WCI  25
CLINTONVILLE   CLOUDY    32  23  69 CALM      30.28F
OSHKOSH        CLOUDY    31  22  69 W7        30.29F WCI  24
$$

WIZ032>034-041-042-053>061-032200-
SOUTHWEST WISCONSIN

CITY           SKY/WX    TMP DP  RH WIND       PRES   REMARKS
LA CROSSE      CLOUDY    34  24  67 SE5       30.27F WCI  30
SPARTA         CLOUDY    32  23  69 SW3       30.28F
VIROQUA        CLOUDY    31  26  80 S5        30.25F WCI  26
BOSCOBEL       CLOUDY    35  24  64 S5        30.30S WCI  31
PRAIRIE DU CHI CLOUDY    35  24  65 SE3       30.29S
PLATTEVILLE    CLOUDY    34  28  79 SW5       30.29S WCI  30
$$

WIZ056-057-062-063-064-067-068-032200-
SOUTH CENTRAL WISCONSIN

CITY           SKY/WX    TMP DP  RH WIND       PRES   REMARKS
REEDSBURG      CLOUDY    32  23  69 SW5       30.29R WCI  27
BARABOO/DELLS  CLOUDY    32  21  64 W3        30.28S
LONE ROCK      NOT AVBL
MINERAL POINT  CLOUDY    34  28  80 SW5       30.28R WCI  30
MADISON        CLOUDY    33  22  63 W6        30.29F WCI  28
MIDDLETON      CLOUDY    34  25  68 W6        30.30R WCI  29
WATERTOWN      CLOUDY    31  24  74 CALM      30.29S
MONROE         CLOUDY    32  25  74 SW8       30.29R WCI  25
JANESVILLE     CLOUDY    34  23  64 CALM      30.30S
$$

WIZ051-052-058>065-066-070>072-032200-
SOUTHEAST WISCONSIN

CITY           SKY/WX    TMP DP  RH WIND       PRES   REMARKS
MILWAUKEE      CLOUDY    33  22  63 W6        30.30F WCI  28
WAUKESHA       CLOUDY    28  21  74 W6        30.31  WCI  22
MILWAUKEE/TIMM CLOUDY    30  19  64 W7        30.31F WCI  23
RACINE         CLOUDY    32  22  66 W5        30.33S WCI  27
BURLINGTON     CLOUDY    31  23  71 CALM      30.30F
KENOSHA        CLOUDY    32  23  69 W7        30.32R WCI  26
FOND DU LAC    CLOUDY    31  20  63 VRB5      30.29F WCI  26
SHEBOYGAN      CLOUDY    32  23  69 W6        30.30R WCI  26
WEST BEND      CLOUDY    32  25  74 W6        30.29F WCI  26
JUNEAU         CLOUDY    30  22  72 CALM      30.29F
$$

LSZ147-162-032200-
LAKE SUPERIOR

STATION/POSITION TIME  TEMP    WIND        PRES    WAVE
                       AIR SEA DIR/SP/G            HT/PER
                 (UTC) (F)     (DEG/KT/KT) (MB)    (FT/S)
DEVILS ISLAND    2000   32     270/ 11/ 12 1025.1F
PORT WING        2030   32     180/  5/  7 1024.4S
SAXON HARBOR     2030   33     200/  2/  4 1024.0F
$$

LMZ867-665-643>646-032200-
LAKE MICHIGAN

STATION/POSITION TIME  TEMP    WIND        PRES    WAVE
                       AIR SEA DIR/SP/G            HT/PER
                 (UTC) (F)     (DEG/KT/KT) (MB)    (FT/S)
CHAMBERS ISLAND  2040   36     220/  6/  9 1024.7R
NORTHPORT PIER   2040   37     220/  1/  4 1024.7R
SISTER BAY       2009   37     290/  6/  8   N/A
ALGOMA LAKESHORE 1951          250/  8/ 10   N/A
KEWAUNEE LAKESHO 2030   33     230/  5/  9 1025.4R
SHEBOYGAN LAKESH 2000   33     230/  7/  9 1026.6F
PORT WASHINGTON  2040   33     260/  4/  6 1027.1F
MILWAUKEE LAKESH 2030   33     290/  7/  9   N/A
S MID LAKE BUOY  1950   35 49  220/ 12/ 16 1027.1R   1/ 3
KENOSHA   LAKESH 2000   32     270/  9/ 13 1026.4
$$

TC  - TEMPERATURE IN CELSIUS
VSB - VISIBILITY IN STATUTE MILES
WCI - WIND CHILL INDEX
HX  - HEAT INDEX





USA.gov is the U.S. government's official web portal to all federal, state and local government web resources and services.